TimeGMT,TemperatureF,Dew PointF,Humidity,Sea Level PressureIn,VisibilityMPH,Wind Direction,Wind SpeedMPH,Gust SpeedMPH,PrecipitationIn,Events,Conditions,WindDirDegrees,DateUTC
12:00 AM,43,42,92,30.33,6,NW,8.9,,,Rain,Light Drizzle,320,2013-12-04 00:00:00
12:00 AM,42.8,41.0,93,30.30,5.6,NW,8.1,-,N/A,,Light Drizzle,320,2013-12-04 00:00:00
1:00 AM,42.8,41.0,93,30.33,6.2,WNW,5.8,-,N/A,,Mostly Cloudy,290,2013-12-04 01:00:00
2:00 AM,41.0,41.0,100,30.33,6.2,West,8.1,-,N/A,,Mostly Cloudy,270,2013-12-04 02:00:00
3:00 AM,39.2,37.4,93,30.36,6.2,WSW,6.9,-,N/A,,Partly Cloudy,250,2013-12-04 03:00:00
4:00 AM,37.4,37.4,100,30.36,6.2,WSW,8.1,-,N/A,,Unknown,250,2013-12-04 04:00:00
5:00 AM,35.6,35.6,100,30.36,6.2,WSW,9.2,-,N/A,,Unknown,250,2013-12-04 05:00:00
6:00 AM,36,35,93,30.42,19,WSW,8.9,,,,Partly Cloudy,250,2013-12-04 06:00:00
6:00 AM,35.6,35.6,100,30.39,6.2,WSW,9.2,-,N/A,,Unknown,250,2013-12-04 06:00:00
7:00 AM,35.6,33.8,93,30.42,6.2,WSW,10.4,-,N/A,,Unknown,250,2013-12-04 07:00:00
8:00 AM,35.6,33.8,93,30.42,6.2,WSW,10.4,-,N/A,,Partly Cloudy,250,2013-12-04 08:00:00
8:30 AM,35.6,33.8,93,30.45,6.2,WSW,10.4,-,N/A,,Partly Cloudy,250,2013-12-04 08:30:00
9:00 AM,35.6,33.8,93,30.45,6.2,WSW,10.4,-,N/A,,Partly Cloudy,240,2013-12-04 09:00:00
10:00 AM,37.4,35.6,93,30.48,6.2,WSW,10.4,-,N/A,,Partly Cloudy,250,2013-12-04 10:00:00
10:30 AM,39.2,35.6,87,30.48,6.2,WSW,12.7,-,N/A,,Partly Cloudy,250,2013-12-04 10:30:00
11:00 AM,39.2,35.6,87,30.48,6.2,West,12.7,-,N/A,,Partly Cloudy,260,2013-12-04 11:00:00
11:30 AM,39.2,35.6,87,30.48,6.2,WSW,11.5,-,N/A,,Partly Cloudy,250,2013-12-04 11:30:00
12:00 PM,41,37,79,30.51,31,WSW,11.2,,,,Scattered Clouds,250,2013-12-04 12:00:00
12:00 PM,41.0,37.4,87,30.48,6.2,WSW,11.5,-,N/A,,Partly Cloudy,250,2013-12-04 12:00:00
12:30 PM,42.8,37.4,81,30.51,6.2,WSW,11.5,-,N/A,,Partly Cloudy,240,2013-12-04 12:30:00
1:00 PM,42.8,37.4,81,30.48,6.2,WSW,12.7,-,N/A,,Partly Cloudy,240,2013-12-04 13:00:00
1:30 PM,42.8,37.4,81,30.48,6.2,WSW,12.7,-,N/A,,Partly Cloudy,240,2013-12-04 13:30:00
2:00 PM,42.8,37.4,81,30.48,6.2,WSW,12.7,-,N/A,,Partly Cloudy,250,2013-12-04 14:00:00
3:00 PM,42.8,37.4,81,30.48,6.2,WSW,11.5,-,N/A,,Partly Cloudy,250,2013-12-04 15:00:00
4:00 PM,42.8,37.4,81,30.48,6.2,SW,10.4,-,N/A,,Partly Cloudy,220,2013-12-04 16:00:00
4:30 PM,39.2,35.6,87,30.51,6.2,SW,10.4,-,N/A,,Partly Cloudy,230,2013-12-04 16:30:00
5:00 PM,37.4,35.6,93,30.48,6.2,SW,11.5,-,N/A,,Partly Cloudy,230,2013-12-04 17:00:00
6:00 PM,40,36,82,30.52,25,SW,13.4,,,,,230,2013-12-04 18:00:00
6:00 PM,39.2,35.6,87,30.48,6.2,SW,13.8,-,N/A,,Unknown,230,2013-12-04 18:00:00
7:00 PM,39.2,35.6,87,30.48,6.2,SW,15.0,-,N/A,,Unknown,220,2013-12-04 19:00:00
8:00 PM,39.2,35.6,87,30.48,6.2,SW,13.8,-,N/A,,Unknown,230,2013-12-04 20:00:00
9:00 PM,37.4,33.8,87,30.45,6.2,SW,16.1,-,N/A,,Unknown,220,2013-12-04 21:00:00
10:00 PM,39.2,35.6,87,30.42,6.2,SW,16.1,-,N/A,,Partly Cloudy,220,2013-12-04 22:00:00
11:00 PM,41.0,35.6,81,30.42,6.2,SW,17.3,-,N/A,,Mostly Cloudy,230,2013-12-04 23:00:00